This demonstration page uses our WeatherBlox Daily Observations layout. Learn more.

36.17497, -115.13722

Hourly Observations for July 11, 2015

Temp ( °F °C ) Dew Point ( °F °C ) Humidity (%) Winds ( mph kmh ) Pressure ( in mb ) Visibility ( mi km ) Precip ( " mm )
12:53 am 00:53 Clear 80 26.7 40 4.4 24 24 Calm 29.81 1010 10 16.0934 0 0
1:53 am 01:53 Clear 80 26.7 39 3.9 23 23 Calm 29.82 1010 10 16.0934 0 0
2:53 am 02:53 Clear 78 25.6 41 5 27 27 Calm 29.82 1010 10 16.0934 0 0
3:53 am 03:53 Clear 74 23.3 43 6.1 33 33 NNW 5 7 29.84 1010 10 16.0934 0 0
4:53 am 04:53 Clear 74 23.3 44 6.7 34 34 Calm 29.85 1011 10 16.0934 0 0
5:53 am 05:53 Sunny 74 23.3 45 7.2 36 36 WNW 3 6 29.87 1012 10 16.0934 0 0
6:53 am 06:53 Sunny 75 23.9 45 7.2 34 34 Calm 29.9 1012 10 16.0934 0 0
7:53 am 07:53 Sunny 80 26.7 44 6.7 28 28 Calm 29.91 1013 10 16.0934 0 0
8:53 am 08:53 Sunny 83 28.3 42 5.6 24 24 SE 10 17 29.91 1013 10 16.0934 0 0
9:53 am 09:53 Sunny 86 30 37 2.8 18 18 SSE 13 20 29.92 1013 10 16.0934 0 0
10:53 am 10:53 Sunny 88 31.1 37 2.8 16 16 S 10 17 29.92 1013 10 16.0934 0 0
11:53 am 11:53 Sunny 90 32.2 37 2.8 15 15 SSE 15 24 29.92 1013 10 16.0934 0 0
12:53 pm 12:53 Sunny 90 32.2 38 3.3 16 16 SE 8 13 29.91 1013 10 16.0934 0 0
1:53 pm 13:53 Sunny 92 33.3 39 3.9 16 16 undefined N/A 29.88 1012 10 16.0934 0 0
2:53 pm 14:53 Sunny 94 34.4 39 3.9 15 15 S 12 19 29.87 1012 10 16.0934 0 0
3:53 pm 15:53 Sunny 95 35 38 3.3 14 14 SE 17 28 29.85 1011 10 16.0934 0 0
5:53 pm 17:53 Sunny 94 34.4 37 2.8 14 14 SSE 20 31 29.83 1010 10 16.0934 0 0
6:53 pm 18:53 Sunny 93 33.9 36 2.2 13 13 SSE 18 30 29.84 1010 10 16.0934 0 0
7:53 pm 19:53 Sunny 91 32.8 35 1.7 14 14 SSE 20 31 29.85 1011 10 16.0934 0 0
8:53 pm 20:53 Clear 89 31.7 39 3.9 17 17 S 14 22 29.87 1012 10 16.0934 0 0
9:53 pm 21:53 Clear 88 31.1 39 3.9 18 18 S 9 15 29.9 1013 10 16.0934 0 0
10:53 pm 22:53 Clear 86 30 38 3.3 18 18 S 10 17 29.91 1013 10 16.0934 0 0
11:53 pm 23:53 Clear 85 29.4 37 2.8 18 18 S 10 17 29.92 1013 10 16.0934 0 0

Powered by AerisWeather